Regional Weather Roundup
Issued by NWS Lake Charles, LA

Home | Current Version | Previous Version | Text Only | Print | Product List | Glossary On
Versions: 1 2 3 4 5 6 7 8 9 10 11 12 13 14 15 16 17 18 19 20 21 22 23 24 25 26 27
000
ASUS44 KLCH 260310
RWRLCH
REGIONAL WEATHER ROUNDUP
NATIONAL WEATHER SERVICE LAKE CHARLES LA
1000 PM CDT WED MAY 25 2016

Note: "fair" indicates few or no clouds below 12,000 feet with no
significant weather and/or obstructions to visibility.


ACROSS SOUTHEAST TEXAS

CITY           SKY/WX    TMP DP  RH WIND       PRES   REMARKS
BEAUMONT       MOCLDY    79  75  87 SE14      30.02S
BEAUMONT CITY  NOT AVBL
ORANGE         CLOUDY    79  74  83 S13G18    30.05R
JASPER         CLOUDY    78  73  84 S6        30.05R
$$

ACROSS CENTRAL LOUISIANA

CITY           SKY/WX    TMP DP  RH WIND       PRES   REMARKS
LEESVILLE      MOCLDY    79  74  84 S12       30.04R
FULLERTON      NOT AVBL
ALEXANDRIA INT CLOUDY    79  74  84 S9        30.03S
ESLER FIELD    MOCLDY    77  73  87 SE5       30.06R
DERIDDER       FAIR      79  74  83 S7        30.06R
OAKDALE        PTCLDY    78  74  88 S3        30.05R
OPELOUSAS      FAIR      78  74  87 SE7       30.07R
$$

ACROSS SOUTHWEST AND SOUTH CENTRAL LOUISIANA

CITY           SKY/WX    TMP DP  RH WIND       PRES   REMARKS
SULPHUR        MOCLDY    81  75  82 SE14      30.05R
LAKE CHARLES   PTCLDY    79  74  84 S9        30.04S
CHENNAULT INT  CLEAR     81  73  78 S10       30.05
CAMERON PHI    MOCLDY    81  77  89 S16G24    30.07S
DEQUINCY       FAIR      77  74  91 SE8       30.03S
JENNINGS       FAIR      79  73  83 S8        30.05R
LAFAYETTE      CLOUDY    80  74  81 S8        30.07R
NEW IBERIA     PTCLDY    78  74  87 S7        30.09R
ABBEVILLE      FAIR      78  76  94 SE10      30.08R
PATTERSON      CLEAR     78  75  90 SE7       30.11R
SALT POINT       N/A     79  76  90 VRB7      30.08R
$$

SELECTED SITES ACROSS THE REGION

CITY           SKY/WX    TMP DP  RH WIND       PRES   REMARKS
HOUSTON BUSH   CLOUDY    79  74  84 S16       30.00R
HOUSTON HOBBY  CLOUDY    81  76  84 SE9       30.00R
GALVESTON      PTCLDY    80  78  94 SE17G28   30.03R
COLLEGE STAT   CLOUDY    81  74  79 S13       30.00R
CONROE         MOCLDY    79  74  84 S9        30.02R
HUNTSVILLE     PTCLDY    81  74  79 S8        30.01R
LUFKIN         CLOUDY    79  73  82 S9        30.02R
SHREVEPORT     CLOUDY    81  74  79 S9        30.01R
MONROE         CLOUDY    81  74  79 SE5       30.05R
NATCHEZ MS     CLOUDY    81  72  74 S12G18    30.09S
BATON ROUGE    CLEAR     81  71  71 S10       30.09R
N.O. INTL ARPT MOCLDY    79  72  79 SE8       30.13R
SLIDELL        CLEAR     75  72  90 SE3       30.13R
$$

MARINE REPORTS

STATION/POSITION TIME  SKY/WX   TEMP    WIND        PRES    VSBY
                                AIR SEA DIR/SP/G
                 (UTC)          (F)     (DEG/KT/KT) (MB)    (MI)
BUOY 30 S HIGH I 0250            80 81  150/ 17/ 19 1016.0F
WVE H/P(F/S)=  4/ 7

SEA RIM ST PARK  0300            80     150/ 15/ 19 1017.8R
PORT ARTHUR      0200               79  150/ 10/ 16 1016.8F
SABINE PASS N    0200               83  160/ 16/ 20 1017.8F
TEXAS POINT      NOT AVBL
CALCASIEU PASS   0200               81  170/ 15/ 17 1016.5F
LK CHARLES BEACH 0200               77              1017.6R
MARSH ISLAND     0200            80                   N/A
FRESH WATER LOCK 0200               83  130/  9/ 13 1018.7F
AMERADA PASS     0200               79  130/  7/ 12 1018.7R
$$




USA.gov is the U.S. government's official web portal to all federal, state and local government web resources and services.